Wind_Speed
22 24 24 25 25 26 27 28 28 30 30 31 31 31 32 34 33 32 32 32 31 31 29 27 27 26 22 19 19 18 18 19 18 19 23 24 25 25 24 23 24 24
22 24 24 25 25 26 28 28 29 30 30 29 31 32 34 36 35 31 32 32 30 29 28 26 25 26 22 19 19 17 17 18 17 18 20 21 22 23 22 21 22 22
22 23 24 24 25 26 27 28 29 29 29 29 31 34 36 38 35 30 30 30 28 27 25 23 25 25 21 18 17 16 16 17 17 18 19 20 21 22 22 21 20 21
22 23 23 24 25 26 26 27 28 28 29 31 33 36 38 38 33 28 28 27 26 26 24 22 24 24 20 17 16 14 15 16 16 18 18 19 20 21 21 20 20 21
21 21 21 22 23 24 25 27 28 28 30 32 35 37 37 34 28 24 24 24 24 25 24 22 23 22 18 15 13 13 14 14 16 19 19 18 19 21 21 20 20 20
19 19 19 20 22 23 24 26 27 28 29 31 35 36 33 28 23 20 20 20 21 24 23 21 21 19 14 12 11 11 12 13 15 19 18 17 19 20 19 18 16 15
17 17 18 20 21 22 24 25 25 26 27 29 32 32 28 22 19 17 17 18 19 22 22 19 17 14 10 9 9 9 10 12 14 17 17 16 18 17 15 14 13 14
16 17 18 19 20 21 23 23 24 24 25 27 28 27 23 19 16 16 17 18 20 20 19 16 13 10 6 6 6 6 7 8 10 13 13 13 14 14 14 13 13 13
16 16 16 18 20 21 22 22 23 24 24 25 25 23 21 18 16 17 17 18 19 18 15 11 9 7 4 3 3 4 5 5 4 6 8 9 11 11 11 11 12 12
15 15 16 18 20 21 22 22 22 23 24 24 22 21 21 19 18 18 17 16 16 13 10 8 7 7 5 4 4 4 5 5 4 6 8 9 9 8 8 9 11 12
14 15 16 18 20 21 21 22 21 22 23 23 21 21 20 19 18 17 17 15 14 11 9 9 9 7 5 5 6 6 6 6 7 9 10 10 10 9 8 8 10 12
14 15 16 17 20 21 21 21 22 22 23 22 21 20 20 18 16 16 16 15 13 11 9 8 8 7 5 5 5 5 7 7 8 9 9 10 11 10 9 9 12 14
14 15 16 17 19 21 21 21 22 22 22 22 22 20 18 17 16 16 15 15 13 11 9 8 8 7 5 5 4 4 6 7 9 10 10 11 12 11 10 12 15 15
15 15 16 16 17 19 21 22 22 22 21 21 21 19 17 16 16 15 14 14 14 12 10 9 8 6 3 5 5 4 6 7 9 11 11 10 10 10 11 13 15 15
14 15 16 17 17 18 20 21 21 21 21 21 20 18 17 16 16 15 13 13 14 12 12 10 7 5 5 6 7 6 7 7 8 10 10 9 9 10 12 12 13 14
15 15 16 17 17 17 18 19 20 21 21 20 19 17 16 16 15 14 13 13 14 12 11 10 7 6 7 8 9 9 8 8 9 10 10 10 10 10 10 9 11 13
15 16 16 16 16 16 17 17 19 21 21 20 18 16 15 15 14 13 12 12 13 13 11 10 9 8 9 9 10 11 11 11 11 11 11 11 9 8 7 7 9 12
14 16 16 16 15 15 17 17 17 19 20 20 18 15 14 14 13 14 13 11 11 12 10 8 9 9 9 10 11 13 14 13 13 12 12 10 7 6 6 7 9 11
14 15 15 16 15 15 16 16 16 18 18 19 17 15 13 11 10 13 17 14 11 11 11 9 8 9 10 11 14 16 15 13 12 11 11 10 9 9 9 8 8 10
13 14 15 15 15 15 15 15 15 16 17 18 17 14 11 9 9 13 16 13 8 10 14 13 10 10 12 13 15 18 16 13 13 12 10 10 10 12 12 11 9 9
12 14 14 15 15 14 14 14 14 16 17 18 17 15 12 9 10 13 13 10 7 9 12 13 10 9 11 13 15 18 18 15 15 15 13 12 13 13 13 13 11 9
12 13 14 14 14 14 14 13 14 14 15 16 16 15 15 13 12 12 12 9 8 9 10 10 9 10 12 12 14 19 22 20 18 16 14 15 17 15 14 15 14 11
12 12 12 12 12 12 13 13 14 14 13 14 14 13 14 14 14 13 11 9 7 7 7 7 8 9 9 8 10 16 22 23 22 20 18 19 19 17 16 16 17 16
11 11 11 11 12 12 13 13 13 13 12 11 11 11 10 11 12 12 11 9 8 7 6 6 6 8 7 6 8 12 18 23 24 24 23 23 21 19 18 17 15 15
9 9 10 11 12 12 12 12 11 11 10 9 9 9 9 10 11 12 11 10 9 9 8 7 4 5 6 6 8 9 13 18 21 23 23 23 21 20 19 17 15 14
8 9 9 10 11 11 11 11 10 10 9 8 7 7 8 10 11 12 12 12 11 10 9 8 6 5 6 7 9 10 12 14 17 20 22 24 24 23 21 19 18 19
Wind_Direction
310 306 305 307 310 310 309 309 309 309 310 310 310 308 307 307 303 292 283 280 279 275 268 267 270 272 273 276 277 275 270 268 262 252 242 235 233 235 235 233 233 233
308 306 307 310 311 311 310 311 311 311 311 311 310 309 306 306 303 291 281 280 279 274 268 268 268 268 269 270 273 272 266 265 259 250 245 239 236 237 236 230 228 229
307 307 310 312 313 312 313 314 314 314 314 312 310 309 306 305 301 288 275 275 277 274 271 272 272 270 270 268 270 270 265 263 256 246 241 238 236 235 231 229 227 227
308 311 314 315 315 316 317 318 318 317 317 316 313 310 308 306 301 285 274 273 273 270 266 267 269 269 267 264 267 267 263 261 250 243 241 236 231 230 228 227 228 227
311 316 318 318 318 320 321 320 320 321 321 319 317 316 314 310 302 287 278 277 272 268 267 268 268 267 265 264 268 264 259 253 239 236 241 233 226 229 228 223 221 221
318 322 322 321 322 323 322 322 323 324 325 324 323 322 321 317 308 295 283 277 272 271 274 274 271 269 267 267 269 261 257 251 232 229 233 230 230 231 223 214 210 207
323 324 323 322 325 326 324 325 329 329 329 329 329 328 327 323 317 307 291 279 278 280 281 279 272 265 261 263 261 251 252 248 232 230 230 227 229 222 205 203 207 202
324 324 325 327 330 332 330 332 335 333 331 333 335 335 331 325 321 317 304 289 287 288 283 274 262 250 246 253 253 248 257 255 237 231 225 214 214 204 191 196 201 193
327 329 332 334 337 339 339 339 337 333 331 334 339 340 335 330 325 320 313 302 296 292 283 271 255 245 237 223 227 244 260 267 237 213 202 195 199 193 184 192 200 193
333 338 341 340 342 346 346 345 341 334 331 334 338 339 337 338 334 327 323 316 306 296 282 270 257 247 242 231 232 241 247 256 241 211 198 192 190 191 196 201 204 198
336 341 344 343 345 349 350 348 343 337 334 334 334 336 338 341 340 333 330 324 316 310 298 287 275 262 255 250 247 244 240 237 229 218 208 200 195 199 208 203 198 198
335 341 346 346 347 349 350 348 343 339 338 335 332 332 336 339 338 335 335 332 326 322 319 310 292 278 266 255 250 244 237 228 216 210 206 204 203 199 200 200 205 210
336 340 346 348 348 348 349 348 344 342 342 339 335 332 334 338 339 339 339 335 330 326 323 318 302 288 272 260 261 234 222 218 208 206 202 197 196 195 201 210 215 219
336 339 344 347 349 348 347 347 346 344 344 344 342 337 335 338 340 343 344 337 332 329 323 316 307 302 275 245 251 234 213 207 201 203 200 192 193 199 208 218 223 224
332 336 341 345 349 350 348 348 347 345 345 346 347 345 340 338 338 341 343 336 329 325 320 313 302 290 263 231 228 228 217 208 201 200 200 199 206 214 218 225 233 235
329 334 339 343 349 352 350 349 348 348 348 347 348 349 344 340 339 337 335 330 322 316 311 304 286 265 256 241 229 222 215 210 207 206 209 215 222 228 232 237 241 238
327 332 339 344 349 351 352 353 351 351 354 352 348 349 347 343 340 337 334 327 317 312 306 296 285 266 251 248 239 225 216 213 212 212 215 224 234 237 240 246 242 235
326 332 339 345 348 351 353 355 353 353 357 357 351 348 349 346 340 340 342 334 317 311 305 287 281 274 255 241 235 230 227 221 217 218 220 227 244 245 234 238 237 231
327 333 339 344 347 350 353 354 354 353 354 356 353 349 348 345 337 338 343 342 328 317 312 294 273 273 265 244 226 223 228 227 220 223 231 239 255 258 251 252 244 230
330 335 339 343 345 347 352 351 350 350 349 351 351 346 343 339 327 331 343 349 338 323 324 317 290 269 270 260 233 218 220 228 226 227 236 244 253 256 254 259 261 242
333 336 338 341 341 343 348 348 348 348 346 347 349 345 339 331 320 325 337 342 328 321 330 328 308 282 280 275 251 227 218 221 226 226 229 237 245 250 248 253 268 264
334 336 337 338 338 340 342 343 344 346 346 348 351 347 339 333 328 326 326 325 324 327 334 332 315 297 291 286 267 240 224 220 226 228 230 237 244 248 247 249 264 273
332 335 335 335 335 335 336 338 340 343 346 351 354 351 342 335 335 336 335 337 339 338 344 343 322 302 294 293 280 253 232 225 227 228 229 235 242 251 253 247 253 266
330 332 333 332 329 328 331 334 335 338 344 352 356 359 356 350 348 349 349 355 358 356 7 5 327 302 291 278 275 264 246 237 236 235 234 233 238 251 253 243 247 263
329 326 326 325 323 325 329 332 331 331 338 352 0 3 7 10 11 7 359 358 359 359 11 17 340 292 281 275 272 270 261 252 248 247 244 240 241 250 250 241 244 258
325 321 319 317 316 318 323 328 328 324 325 334 346 357 8 12 13 13 10 7 2 356 359 5 352 309 289 292 290 284 280 274 266 260 252 245 244 249 250 249 252 255
Height
3135 3133 3131 3130 3129 3128 3126 3124 3122 3120 3119 3117 3115 3114 3112 3111 3109 3108 3107 3106 3105 3105 3104 3104 3104 3104 3103 3103 3103 3103 3103 3103 3103 3104 3105 3108 3110 3111 3113 3115 3117 3118
3133 3131 3130 3129 3127 3126 3124 3122 3120 3118 3116 3114 3112 3110 3108 3106 3105 3103 3103 3101 3101 3101 3102 3102 3102 3101 3100 3100 3100 3100 3100 3100 3101 3102 3103 3105 3107 3108 3110 3112 3114 3116
3131 3129 3128 3127 3125 3123 3121 3120 3117 3115 3113 3111 3109 3106 3104 3102 3100 3099 3098 3097 3097 3098 3099 3100 3100 3099 3098 3098 3097 3097 3097 3098 3099 3099 3100 3102 3104 3105 3108 3110 3112 3113
3129 3128 3126 3125 3123 3121 3119 3117 3115 3112 3110 3108 3106 3103 3099 3096 3095 3094 3093 3094 3095 3095 3095 3097 3097 3096 3096 3095 3095 3095 3095 3096 3097 3097 3098 3100 3102 3103 3105 3107 3109 3111
3128 3126 3125 3123 3121 3119 3117 3115 3112 3110 3108 3105 3102 3099 3095 3092 3090 3090 3091 3092 3093 3092 3092 3094 3094 3094 3094 3093 3093 3093 3094 3094 3095 3096 3097 3098 3099 3101 3103 3104 3106 3108
3126 3125 3123 3122 3120 3118 3116 3113 3110 3108 3106 3103 3100 3095 3092 3090 3089 3089 3089 3091 3091 3090 3090 3091 3092 3092 3092 3092 3092 3092 3092 3093 3094 3095 3095 3096 3097 3098 3100 3102 3104 3107
3124 3123 3122 3120 3119 3116 3114 3111 3109 3107 3104 3102 3098 3094 3091 3089 3088 3088 3088 3089 3090 3090 3089 3090 3090 3091 3091 3091 3091 3091 3091 3092 3092 3093 3093 3094 3095 3096 3098 3100 3103 3105
3123 3122 3121 3119 3117 3115 3112 3110 3108 3106 3103 3100 3097 3094 3091 3089 3089 3088 3089 3089 3090 3090 3089 3090 3090 3090 3090 3090 3090 3090 3091 3091 3091 3092 3092 3093 3094 3094 3096 3099 3102 3104
3122 3121 3119 3118 3116 3114 3111 3109 3107 3105 3102 3100 3097 3094 3092 3090 3090 3089 3089 3089 3089 3089 3088 3089 3090 3090 3090 3090 3090 3090 3091 3091 3092 3092 3092 3093 3094 3095 3096 3098 3101 3103
3121 3120 3118 3116 3114 3113 3111 3109 3106 3104 3101 3100 3097 3095 3092 3091 3090 3089 3089 3088 3087 3088 3089 3089 3089 3090 3089 3089 3089 3090 3091 3092 3093 3093 3093 3094 3094 3096 3097 3099 3101 3102
3120 3118 3117 3115 3114 3112 3110 3108 3105 3103 3101 3099 3097 3095 3093 3092 3091 3090 3089 3089 3087 3088 3089 3090 3089 3090 3090 3089 3089 3090 3091 3092 3093 3093 3094 3095 3095 3097 3097 3099 3101 3101
3118 3117 3116 3115 3113 3111 3109 3107 3105 3102 3100 3099 3097 3095 3094 3092 3091 3090 3090 3089 3089 3089 3090 3090 3090 3090 3090 3089 3089 3089 3090 3091 3092 3093 3094 3095 3096 3097 3098 3099 3100 3100
3117 3116 3115 3114 3112 3110 3108 3106 3104 3102 3100 3098 3096 3095 3094 3093 3092 3091 3090 3090 3089 3089 3090 3090 3090 3090 3091 3090 3089 3090 3090 3091 3092 3093 3095 3095 3096 3097 3098 3099 3099 3100
3116 3115 3114 3113 3111 3110 3108 3106 3104 3101 3100 3098 3096 3094 3094 3094 3093 3091 3091 3090 3090 3090 3090 3090 3090 3091 3091 3091 3090 3090 3091 3092 3092 3093 3095 3095 3096 3096 3097 3098 3100 3100
3115 3114 3113 3112 3111 3109 3107 3105 3103 3101 3100 3098 3096 3095 3094 3094 3093 3092 3091 3090 3090 3090 3090 3090 3090 3090 3091 3091 3091 3091 3092 3092 3093 3093 3095 3095 3096 3096 3097 3098 3100 3100
3114 3113 3112 3111 3110 3109 3107 3105 3103 3101 3100 3098 3096 3095 3094 3093 3093 3092 3091 3090 3089 3089 3089 3089 3090 3090 3091 3091 3091 3092 3092 3092 3093 3093 3094 3095 3095 3096 3097 3098 3099 3100
3113 3112 3111 3110 3109 3108 3107 3105 3103 3101 3099 3097 3096 3095 3094 3093 3092 3091 3091 3090 3089 3088 3088 3089 3089 3089 3090 3090 3091 3091 3091 3091 3092 3092 3092 3093 3093 3095 3096 3097 3098 3099
3112 3111 3110 3109 3108 3107 3106 3105 3103 3101 3099 3097 3096 3095 3094 3093 3092 3091 3090 3089 3089 3088 3088 3088 3089 3089 3089 3090 3090 3091 3091 3091 3091 3092 3093 3093 3092 3093 3095 3096 3096 3097
3111 3110 3109 3108 3107 3106 3105 3104 3103 3101 3099 3097 3096 3095 3094 3093 3092 3091 3090 3089 3089 3089 3088 3089 3089 3088 3089 3089 3090 3090 3090 3091 3092 3092 3093 3094 3093 3093 3094 3095 3095 3096
3111 3110 3108 3107 3106 3105 3104 3103 3102 3101 3099 3097 3096 3095 3094 3094 3093 3092 3090 3089 3089 3089 3089 3088 3088 3087 3087 3088 3089 3089 3089 3090 3092 3092 3093 3094 3094 3094 3094 3095 3095 3095
3110 3109 3108 3107 3106 3105 3104 3103 3102 3100 3099 3097 3096 3095 3094 3093 3093 3092 3090 3090 3089 3089 3089 3088 3087 3086 3086 3087 3087 3088 3088 3089 3090 3091 3091 3092 3093 3093 3093 3094 3094 3095
3109 3108 3107 3106 3105 3104 3103 3102 3101 3100 3099 3097 3096 3094 3093 3092 3092 3091 3090 3090 3089 3089 3088 3087 3086 3086 3086 3086 3086 3086 3087 3087 3088 3089 3089 3090 3091 3092 3092 3093 3093 3094
3108 3107 3106 3105 3104 3104 3103 3102 3101 3100 3098 3097 3096 3095 3093 3092 3091 3090 3090 3089 3089 3088 3087 3087 3086 3086 3086 3085 3085 3086 3086 3087 3087 3087 3088 3089 3090 3091 3092 3093 3093 3093
3108 3107 3106 3105 3104 3103 3102 3101 3101 3099 3098 3097 3096 3095 3093 3092 3091 3090 3089 3089 3088 3088 3087 3086 3086 3086 3086 3086 3085 3086 3086 3087 3087 3087 3087 3088 3089 3090 3091 3091 3092 3092
3107 3106 3105 3104 3103 3103 3102 3101 3100 3099 3098 3098 3096 3095 3094 3093 3091 3090 3089 3088 3087 3087 3087 3087 3086 3086 3086 3086 3086 3086 3086 3087 3087 3088 3088 3089 3089 3089 3090 3090 3090 3091
3106 3105 3104 3103 3103 3102 3102 3101 3100 3099 3098 3097 3097 3095 3094 3093 3092 3091 3090 3089 3088 3087 3087 3087 3087 3087 3086 3086 3086 3086 3086 3087 3087 3087 3087 3088 3088 3088 3089 3089 3089 3089